This is the latest recevied weather packets stored in our database for station/object WP3OF-2. If no packets are shown the sender has not sent any weather packets the latest 10 day(s).
| Time | Temp. | Humidity | Pressure | Rain* | Wind** | Luminosity | Snow |
|---|---|---|---|---|---|---|---|
| 1788094708 | 21.67° C | 99% | 1025.6 hPa | 0 mm | - | 65 W/m² | - |
| 1788094404 | 21.67° C | 99% | 1025.6 hPa | 0 mm | - | 85 W/m² | - |
| 1788094101 | 21.67° C | 99% | 1025.2 hPa | 1.27 mm | - | 58 W/m² | - |
| 1788093797 | 21.67° C | 99% | 1025.2 hPa | 1.27 mm | - | 58 W/m² | - |
| 1788093494 | 22.22° C | 99% | 1025.2 hPa | 0 mm | - | 78 W/m² | - |
| 1788093189 | 21.67° C | 99% | 1025.2 hPa | 1.78 mm | - | 106 W/m² | - |
| 1788092887 | 21.67° C | 99% | 1024.9 hPa | 1.78 mm | - | 71 W/m² | - |
| 1788092582 | 21.67° C | 99% | 1024.9 hPa | 3.05 mm | - | 102 W/m² | - |
| 1788092277 | 21.67° C | 99% | 1024.9 hPa | 3.05 mm | - | 33 W/m² | - |
| 1788091976 | 21.67° C | 99% | 1024.9 hPa | 0 mm | - | 42 W/m² | - |
| 1788091671 | 21.67° C | 99% | 1024.9 hPa | 0 mm | - | 73 W/m² | - |
| 1788091367 | 21.67° C | 99% | 1024.9 hPa | 0 mm | - | 127 W/m² | - |
| 1788091064 | 21.67° C | 99% | 1024.9 hPa | 1.27 mm | - | 87 W/m² | - |
| 1788090759 | 21.67° C | 99% | 1024.9 hPa | 21.59 mm | - | 97 W/m² | - |
| 1788090455 | 21.67° C | 99% | 1024.9 hPa | 21.59 mm | - | 97 W/m² | - |
| 1788090150 | 21.67° C | 99% | 1024.9 hPa | 3.05 mm | - | 15 W/m² | - |
| 1788089846 | 21.67° C | 99% | 1024.9 hPa | 3.05 mm | - | 15 W/m² | - |
| 1788089540 | 21.67° C | 99% | 1024.9 hPa | 3.05 mm | - | 15 W/m² | - |
| 1788089252 | 21.67° C | 99% | 1024.9 hPa | 0 mm | - | 15 W/m² | - |
| 1788088932 | 21.67° C | 99% | 1024.5 hPa | 0 mm | - | 32 W/m² | - |
| 1788088628 | 21.67° C | 99% | 1024.1 hPa | 0 mm | - | 26 W/m² | - |
| 1788088323 | 21.67° C | 99% | 1024.5 hPa | 0 mm | - | 40 W/m² | - |
| 1788088022 | 21.67° C | 99% | 1024.1 hPa | 1.27 mm | - | 68 W/m² | - |
| 1788087719 | 21.67° C | 99% | 1024.1 hPa | 1.27 mm | - | 68 W/m² | - |
| 1788087418 | 21.67° C | 99% | 1024.5 hPa | 0 mm | - | 12 W/m² | - |
* Rain latest hour (hover to see other rain measurements)
** Current wind speed in m/s (hover to see current wind gust speed)